Regional Weather Roundup
Issued by NWS

Home | Current Version | Previous Version | Graphics & Text | Print | Product List | Glossary On
Versions: 1 2 3 4 5 6 7 8 9 10 11 12 13 14 15 16 17 18 19 20 21 22 23 24 25 26 27 28 29 30 31 32 33 34 35 36 37 38 39 40 41 42 43 44 45 46 47 48 49 50
000
ASUS43 KLOT 291200
RWRIL

ILLINOIS REGIONAL WEATHER ROUNDUP
NATIONAL WEATHER SERVICE CHICAGO/ROMEOVILLE IL
700 AM CDT WED JUL 29 2015

NOTE: "FAIR" INDICATES FEW OR NO CLOUDS BELOW 12,000 FEET WITH NO
SIGNIFICANT WEATHER AND/OR OBSTRUCTIONS TO VISIBILITY.

* THESE STATIONS ARE NOT UNDER NWS QUALITY CONTROL. THEY ALSO MAY NOT
  REPORT WEATHER SUCH AS PRECIPITATION OR FOG.

ILZ001-002-007-009-015-016-024-291300-
NORTHWEST ILLINOIS

CITY           SKY/WX    TMP DP  RH WIND       PRES   REMARKS
MOLINE         CLOUDY    74  70  87 NW7       30.00R
6HR MIN TEMP:  74; 6HR MAX TEMP:  78; 6HR PCP: TRACE;

STERLING*      CLOUDY    73  72  94 W8        29.97S
$$

ILZ003-004-008-010-011-017-018-291300-
NORTH CENTRAL ILLINOIS

CITY           SKY/WX    TMP DP  RH WIND       PRES   REMARKS
ROCKFORD       CLOUDY    75  71  87 NW10      29.98R
6HR MIN TEMP:  74; 6HR MAX TEMP:  76;

$$

ILZ005-006-012>014-019>023-291300-
NORTHEAST ILLINOIS

CITY           SKY/WX    TMP DP  RH WIND       PRES   REMARKS
CHICAGO-OHARE  CLOUDY    76  71  85 W8        29.94R
6HR MIN TEMP:  75; 6HR MAX TEMP:  81; 6HR PCP: TRACE;

CHICAGO-MIDWAY CLOUDY    78  70  76 SW6       29.94R HX  80
6HR MIN TEMP:  77; 6HR MAX TEMP:  83; 6HR PCP:  0.07;

AURORA         CLOUDY    74  70  87 W6        29.96R FOG
6HR MIN TEMP:  72; 6HR MAX TEMP:  76; 6HR PCP:  0.64;

WAUKEGAN       CLOUDY    75  71  87 VRB5      29.93R
6HR MIN TEMP:  73; 6HR MAX TEMP:  76; 6HR PCP: TRACE;

DUPAGE AIRPORT CLOUDY    74  71  91 W7        29.95S
6HR MIN TEMP:  73; 6HR MAX TEMP:  78; 6HR PCP: TRACE;

WHEELING       CLOUDY    76  70  82 VRB6      29.94S
6HR MIN TEMP:  76; 6HR MAX TEMP:  80; 6HR PCP: TRACE;

NORTHERLY ISL    N/A     77  69  76 W7          N/A
$$

LMZ740>746-291300-
SOUTHERN LAKE MICHIGAN

STATION/POSITION SKY/WX   TEMP    WIND        PRES    VSBY  WAVE
                          AIR SEA DIR/SP/G                  HT/PER
                          (F)     (DEG/KT/KT) (MB)    (MI)  (FT/S)
HARRISON CRIB              76     260/ 12/ 14   N/A
BURNHAM HARBOR             77     250/ 12       N/A
CALUMET HARBOR             75     230/  3/  6   N/A
BURNS HARBOR               75     260/  5/  7 1014.2R
MICHIGAN CITY              75     230/  7/  8   N/A
MICHIGAN CITY 6N           76 74  270/  6/  8   N/A           1/ 2
ST. JOSEPH                 76 75  270/ 10/ 12   N/A           1
$$

ILZ025>027-034>036-040-047-049-050-058-095>099-291300-
WEST-CENTRAL ILLINOIS

CITY           SKY/WX    TMP DP  RH WIND       PRES   REMARKS
QUINCY         CLOUDY    72  70  93 N7        30.02F
$$

ILZ028>032-037-038-041>044-048-051>054-059>061-291300-
CENTRAL ILLINOIS

CITY           SKY/WX    TMP DP  RH WIND       PRES   REMARKS
DECATUR        CLOUDY    75  72  90 CALM      29.98R
PEORIA         CLOUDY    77  73  87 NW3       29.98R
6HR MIN TEMP:  75; 6HR MAX TEMP:  81; 6HR PCP:  0.43;

SPRINGFIELD    CLOUDY    79  76  90 NW8       29.98R HX  83
6HR MIN TEMP:  77; 6HR MAX TEMP:  82;

TAYLORVILLE    NOT AVBL
$$

ILZ033-039-045-046-055>057-062-063-291300-
EAST-CENTRAL ILLINOIS

CITY           SKY/WX    TMP DP  RH WIND       PRES   REMARKS
CHAMPAIGN      CLOUDY    73  72  96 S3        29.98R FOG
MATTOON        LGT RAIN  75  72  90 SE7       29.97F
$$

ILZ079-100>102-291300-
SOUTHWEST ILLINOIS

CITY           SKY/WX    TMP DP  RH WIND       PRES   REMARKS
BELLEVILLE     SUNNY     79  79 100 SW6       29.97S HX  85
CAHOKIA*       SUNNY     81  75  82 SW3       29.98S HX  87
$$

ILZ064>066-069>071-074>076-080>082-084>086-088>090-092>094-291300-
SOUTH-CENTRAL ILLINOIS

CITY           SKY/WX    TMP DP  RH WIND       PRES   REMARKS
CARBONDALE     SUNNY     77  75  93 CALM      29.99S
6HR MIN TEMP:  75; 6HR MAX TEMP:  77;

MARION         MOSUNNY   77  75  94 S5        30.00S
MT. VERNON     MOSUNNY   75  70  83 CALM      30.00S
$$

ILZ067-068-072-073-078-083-087-091-291300-
SOUTHEAST ILLINOIS

CITY           SKY/WX    TMP DP  RH WIND       PRES   REMARKS
LAWRENCEVILLE  PTSUNNY   76  75  97 SW5       29.99S FOG
$$

ABBREVIATIONS USED IN REMARKS
   TC - TEMPERATURE IN CELSIUS
  WCI - WIND CHILL INDEX
   HX - HEAT INDEX
  VSB - VISIBILITY
$$



USA.gov is the U.S. government's official web portal to all federal, state and local government web resources and services.